Station 41040 - NORTH EQUATORIAL ONE- 470 NM East of Martinique Image indicating link to RSS feed of recent meteorological observations for station 41040


Conditions at 41040 as of
(5:50 am ADT)
0850 GMT on 04/22/2024:
     

Click on the graph icon in the table below to see a time series plot of the last five days of that observation.

5-day plot - Wind Direction Wind Direction (WDIR):ENE ( 70 deg true )
5-day plot - Wind Speed Wind Speed (WSPD):8.0 m/s
5-day plot - Wind Gust Wind Gust (GST):9.0 m/s
5-day plot - Wave Height Wave Height (WVHT): 1.4 m
5-day plot - Dominant Wave Period Dominant Wave Period (DPD): 6 sec
5-day plot - Average Wave Period Average Period (APD): 5.0 sec
5-day plot - Mean Wave Direction Mean Wave Direction (MWD):ESE ( 102 deg true )
5-day plot - Atmospheric Pressure Atmospheric Pressure (PRES):1012.8 mb
5-day plot - Air Temperature Air Temperature (ATMP): 27.2 °C
5-day plot - Water Temperature Water Temperature (WTMP): 28.0 °C
5-day plot - Dew Point Dew Point (DEWP): 24.4 °C
5-day plot - Heat Index Heat Index (HEAT): 30.7 °C
5-day plot - Wind Speed at 10 Meters Wind Speed at 10 meters (WSPD10M): 8 m/s
5-day plot - Wind Speed at 20 Meters Wind Speed at 20 meters (WSPD20M): 9 m/s
5-day plot -  Wind Speed, Wind Gust and Atmospheric Pressure Combined plot of Wind Speed, Gust, and Air Pressure
Supplemental Measurements
Highest 1-minute Wind Speed
Time (ADT)5-day plot - 1-Minute Wind Speed WSPD 5-day plot - 1-Minute Wind Direction WDIR
5:46 am 8 m/s-
Previous observations
TIME
(ADT)
5-day plot - Wind Direction
WDIR
 
5-day plot - Wind Speed
WSPD
m/s
5-day plot - Wind Gust
GST
m/s
5-day plot - Wave Height
WVHT
m
5-day plot - Dominant Wave Period
DPD
sec
5-day plot - Average Wave Period
APD
sec
5-day plot - Mean Wave Direction
MWD
 
5-day plot - Atmospheric Pressure
PRES
mb
5-day plot - Pressure Tendency
PTDY
mb
5-day plot - Air Temperature
ATMP
°C
5-day plot - Water Temperature
WTMP
°C
5-day plot - Dew Point
DEWP
°C
5-day plot - Salinity
SAL
psu
5-day plot - Visibility
VIS
km
5-day plot - Tide (above MLLW)
TIDE
m
2024-04-22 05:40 amENE 7.0 9.0----1012.8- 27.3 28.0 24.6---
2024-04-22 05:30 amENE 7.0 9.0----1012.8- 27.2 28.0 24.3---
2024-04-22 05:20 am E 7.0 9.0 1.3 54.9 E1012.6- 27.2 28.0 24.3---
2024-04-22 05:10 amENE 7.0 9.0 1.3-4.9 E1012.5- 27.3 28.0 24.7---
2024-04-22 05:00 amENE 8.0 9.0----1012.4 -0.5 27.3 28.0 24.3---
2024-04-22 04:50 amENE 7.0 9.0 1.3 75.1 E1012.3- 27.2 28.0 24.5---
2024-04-22 04:40 amENE 7.0 9.0 1.3-5.1 E1012.2- 27.2 28.0 24.5---
2024-04-22 04:30 amENE 7.0 9.0----1012.2- 27.2 28.0 24.5---
2024-04-22 04:20 amENE 7.0 9.0 1.3 75.0 E1012.2- 27.3 28.0 24.3---
2024-04-22 04:10 amENE 7.0 9.0 1.3-5.0 E1012.2- 27.2 28.0 24.4---
2024-04-22 04:00 amENE 8.0 9.0----1012.1 -1.6 27.2 28.0 24.3---
2024-04-22 03:50 amENE 8.0 9.0 1.3 74.9 E1012.1- 27.2 28.0 24.6---
2024-04-22 03:40 amENE 7.0 9.0----1012.1- 27.3 28.0 24.7---
2024-04-22 03:30 amENE 7.0 9.0----1012.1- 27.2 28.0 24.4---
2024-04-22 03:20 am E 7.0 8.0 1.3 75.0 E1012.2- 27.3 28.0 24.6---
2024-04-22 03:10 am E 8.0 9.0 1.3-5.0 E1012.2- 27.3 28.0 24.2---
2024-04-22 03:00 amENE 8.0 9.0----1012.3 -2.1 27.2 28.0 24.4---
2024-04-22 02:50 amENE 8.0 9.0 1.3 85.0 E1012.3- 27.3 28.0 24.6---
2024-04-22 02:40 amENE 7.0 9.0----1012.3- 27.3 28.0 24.5---
2024-04-22 02:30 amENE 7.0 9.0----1012.5- 27.4 28.0 24.8---
2024-04-22 02:20 amENE 7.0 9.0 1.3 65.0 E1012.6- 27.3 28.0 24.5---
2024-04-22 02:10 amENE 7.0 9.0 1.3-5.0 E1012.8- 27.3 28.0 24.7---
2024-04-22 02:00 amENE 8.0 9.0----1012.9 -1.8 27.3 28.0 24.6---
2024-04-22 01:50 am E 8.0 9.0 1.3 85.3ENE1013.0- 27.3 28.0 24.6---
2024-04-22 01:40 am E 7.0 9.0----1013.0- 27.4 28.0 24.8---
2024-04-22 01:30 amENE 7.0 9.0----1013.2- 27.4 28.1 24.6---
2024-04-22 01:20 amENE 7.0 9.0 1.4 75.0 E1013.3- 27.4 28.0 24.4---
2024-04-22 01:10 am E 7.0 8.0 1.4-5.0 E1013.5- 27.4 28.0 24.6---
2024-04-22 01:00 amENE 7.0 8.0----1013.7 -1.1 27.4 28.1 24.8---
2024-04-22 12:50 amENE 8.0 9.0 1.4 75.2 E1013.7- 27.4 28.0 24.7---
2024-04-22 12:40 amENE 7.0 9.0 1.4-5.2 E1013.8- 27.4 28.0 24.7---
2024-04-22 12:30 amENE 7.0 10.0----1014.0- 27.4 28.1 24.5---
2024-04-22 12:20 amENE 8.0 9.0 1.3 85.1 E1014.1- 27.4 28.1 24.5---
2024-04-22 12:10 amENE 7.0 9.0 1.3-5.1 E1014.3- 27.4 28.1 24.4---
2024-04-22 12:00 amENE 7.0 9.0----1014.4 +0.0 27.4 28.1 24.5---
2024-04-21 11:50 pmENE 7.0 9.0 1.3 75.2 E1014.5- 27.5 28.1 24.7---
2024-04-21 11:40 pm E 7.0 9.0----1014.6- 27.5 28.1 24.7---
2024-04-21 11:30 pm E 7.0 8.0----1014.7- 27.5 28.1 24.5---
2024-04-21 11:20 pm E 7.0 9.0 1.3 75.1 E1014.6- 27.5 28.1 24.5---
2024-04-21 11:10 pmENE 8.0 9.0 1.3-5.1 E1014.7- 27.5 28.1 24.4---
2024-04-21 11:00 pmENE 7.0 9.0----1014.7 +0.8 27.6 28.1 24.7---
2024-04-21 10:50 pm E 7.0 9.0 1.3 75.1 E1014.7- 27.6 28.1 24.4---
2024-04-21 10:40 pm E 7.0 9.0 1.3-5.1 E1014.7- 27.6 28.1 24.4---
2024-04-21 10:30 pm E 7.0 8.0----1014.7- 27.5 28.1 24.7---
2024-04-21 10:20 pm E 7.0 9.0 1.2 75.1 E1014.7- 27.5 28.1 24.6---
2024-04-21 10:10 pm E 7.0 9.0 1.2-5.1 E1014.8- 27.6 28.1 24.4---
2024-04-21 10:00 pm E 7.0 8.0----1014.8 +1.4 27.6 28.1 24.2---
2024-04-21 09:50 pm E 7.0 9.0 1.2 75.0 E1014.7- 27.6 28.1 24.2---
2024-04-21 09:40 pm E 7.0 8.0----1014.7- 27.6 28.1 24.5---
2024-04-21 09:30 pmENE 7.0 8.0----1014.6- 27.6 28.1 24.5---
2024-04-21 09:20 pmENE 7.0 9.0 1.2 75.2 E1014.6- 27.6 28.1 24.4---
2024-04-21 09:10 pmENE 7.0 9.0 1.2-5.2 E1014.4- 27.6 28.1 24.8---
2024-04-21 09:00 pmENE 7.0 9.0----1014.4 +1.6 27.6 28.1 24.5---
2024-04-21 08:50 pmENE 7.0 8.0 1.2 85.2 E1014.4- 27.6 28.1 24.5---
2024-04-21 08:40 pm E 7.0 9.0----1014.4- 27.6 28.1 24.5---
2024-04-21 08:10 pm E 7.0 9.0 1.3-5.4 E1014.1- 27.6 28.1 24.9---
2024-04-21 08:00 pm E 6.0 8.0----1013.9 +1.7 27.6 28.1 24.8---
2024-04-21 07:50 pm E 7.0 8.0 1.2 85.3ENE1013.7- 27.6 28.1 24.6---
2024-04-21 07:40 pm E 7.0 8.0----1013.6- 27.6 28.1 24.7---
2024-04-21 07:30 pmENE 7.0 8.0----1013.6- 27.6 28.1 24.6---
2024-04-21 07:20 pmENE 7.0 8.0 1.1 85.2 NE1013.5- 27.6 28.1 24.6---
2024-04-21 07:10 pm E 6.0 8.0 1.1-5.2 NE1013.4- 27.7 28.2 24.5---
2024-04-21 07:00 pmENE 6.0 8.0----1013.4 +0.9 27.7 28.1 24.3---
2024-04-21 06:50 pmENE 6.0 7.0 1.2 75.2 E1013.3- 27.7 28.2 24.4---
2024-04-21 06:40 pmENE 6.0 7.0 1.2-5.2 E1013.2- 27.7 28.2 24.4---
2024-04-21 06:30 pmENE 6.0 7.0----1013.0- 27.6 28.2 24.3---
2024-04-21 06:20 pmENE 6.0 7.0 1.2 105.3ENE1012.9- 27.7 28.2 24.6---
2024-04-21 06:10 pmENE 6.0 7.0 1.2-5.3ENE1012.8- 27.7 28.2 24.5---
2024-04-21 06:00 pmENE 6.0 8.0----1012.8 +0.0 27.7 28.2 24.3---
2024-04-21 05:50 pmENE 6.0 8.0 1.3 75.6 E1012.7- 27.7 28.2 24.2---
2024-04-21 05:40 pmENE 6.0 7.0 1.3-5.6 E1012.5- 27.8 28.2 24.4---
2024-04-21 05:30 pmENE 6.0 7.0----1012.5- 27.8 28.2 24.3---
2024-04-21 05:20 pmENE 6.0 7.0 1.2 95.6ENE1012.5- 27.8 28.2 24.2---
2024-04-21 05:10 pmENE 6.0 7.0 1.2-5.6ENE1012.4- 27.8 28.2 24.4---
2024-04-21 05:00 pmENE 5.0 7.0----1012.2 -0.7 27.8 28.3 24.5---
2024-04-21 04:50 pmENE 5.0 7.0 1.2 75.5 E1012.2- 27.8 28.3 24.5---
2024-04-21 04:40 pmENE 5.0 6.0 1.2-5.5 E1012.2- 27.8 28.3 24.4---
2024-04-21 04:30 pm E 5.0 6.0----1012.2- 27.8 28.3 24.1---
2024-04-21 04:20 pm E 5.0 6.0 1.2 75.4ENE1012.3- 27.8 28.3 24.2---
2024-04-21 04:10 pm E 5.0 6.0 1.2-5.4ENE1012.4- 27.8 28.3 24.2---
2024-04-21 04:00 pm E 5.0 6.0----1012.5 -0.9 27.8 28.3 24.2---
2024-04-21 03:50 pm E 5.0 6.0 1.3 75.3 E1012.5- 27.8 28.3 24.4---
2024-04-21 03:40 pm E 5.0 6.0----1012.5- 27.8 28.3 24.3---
2024-04-21 03:30 pm E 5.0 6.0----1012.6- 27.8 28.3 24.3---
2024-04-21 03:20 pm E 5.0 6.0 1.3 85.5 E1012.6- 27.8 28.3 24.2---
2024-04-21 03:10 pm E 5.0 6.0 1.3-5.5 E1012.7- 27.8 28.3 24.2---
2024-04-21 03:00 pm E 5.0 6.0----1012.7 -1.4 27.7 28.3 24.0---
2024-04-21 02:50 pm E 5.0 6.0 1.2 65.3 E1012.7- 27.7 28.2 24.0---
2024-04-21 02:40 pm E 5.0 6.0----1012.8- 27.7 28.2 24.1---
2024-04-21 02:30 pm E 5.0 7.0----1012.8- 27.7 28.2 24.0---
2024-04-21 02:20 pm E 5.0 7.0 1.3 75.3 E1012.7- 27.7 28.2 24.1---
2024-04-21 02:10 pm E 5.0 6.0 1.3-5.3 E1012.8- 27.7 28.2 24.2---
2024-04-21 02:00 pm E 5.0 7.0----1012.9 -1.7 27.7 28.2 24.0---
2024-04-21 01:50 pm E 6.0 7.0 1.3 95.3 NE1012.9- 27.7 28.2 24.0---
2024-04-21 01:40 pm E 5.0 7.0----1013.0- 27.7 28.2 24.0---
2024-04-21 01:30 pm E 6.0 7.0----1013.1- 27.6 28.2 23.9---
2024-04-21 01:20 pm E 6.0 7.0 1.3 105.4ENE1013.3- 27.7 28.2 24.1---
2024-04-21 01:10 pm E 6.0 7.0 1.3-5.4ENE1013.3- 27.7 28.2 24.1---
2024-04-21 01:00 pm E 6.0 8.0----1013.4 -1.3 27.7 28.2 23.9---
2024-04-21 12:50 pm E 6.0 8.0 1.3 85.4ENE1013.5- 27.7 28.2 23.6---
2024-04-21 12:40 pm E 6.0 7.0----1013.6- 27.6 28.1 24.1---
2024-04-21 12:30 pm E 5.0 6.0----1013.7- 27.6 28.2 24.5---
2024-04-21 12:20 pm E 5.0 6.0 1.3 85.2 E1013.9- 27.6 28.2 24.4---
2024-04-21 12:10 pm E 5.0 7.0 1.3-5.2 E1014.0- 27.6 28.1 24.3---
2024-04-21 12:00 pm E 5.0 7.0----1014.1 -0.6 27.6 28.1 24.1---
2024-04-21 11:50 am E 6.0 7.0 1.4 85.5 E1014.1- 27.6 28.1 24.1---
2024-04-21 11:40 am E 6.0 7.0----1014.2- 27.6 28.1 24.0---
2024-04-21 11:30 am E 6.0 7.0----1014.3- 27.6 28.1 24.1---
2024-04-21 11:20 am E 6.0 7.0 1.4 75.3 E1014.4- 27.6 28.1 23.9---
2024-04-21 11:10 am E 6.0 7.0 1.4-5.3 E1014.5- 27.7 28.1 24.1---
2024-04-21 11:00 am E 6.0 7.0----1014.6 +0.5 27.6 28.1 24.0---
2024-04-21 10:50 am E 6.0 8.0 1.4 105.4 NE1014.5- 27.6 28.1 23.9---
2024-04-21 10:40 am E 6.0 8.0 1.4-5.4 NE1014.6- 27.7 28.0 24.0---
2024-04-21 10:30 am E 7.0 8.0----1014.6- 27.6 28.0 23.9---
2024-04-21 10:20 am E 7.0 9.0 1.3 85.3 E1014.6- 27.6 28.0 24.0---
2024-04-21 10:10 am E 6.0 8.0 1.3-5.3 E1014.7- 27.6 28.0 24.2---
2024-04-21 10:00 am E 6.0 7.0----1014.7 +1.4 27.6 28.0 24.1---
2024-04-21 09:50 am E 6.0 8.0 1.3 85.3 E1014.7- 27.5 28.0 24.1---
2024-04-21 09:40 am E 7.0 8.0----1014.8- 27.5 28.0 24.3---
2024-04-21 09:30 am E 7.0 8.0----1014.8- 27.5 28.0 24.2---
2024-04-21 09:20 am E 7.0 9.0 1.4 85.4 E1014.8- 27.6 28.0 24.2---
2024-04-21 09:10 am E 6.0 8.0 1.4-5.4 E1014.8- 27.6 28.0 24.0---
2024-04-21 09:00 am E 6.0 8.0----1014.7 +2.0 27.6 28.0 24.2---
2024-04-21 08:50 am E 6.0 8.0 1.3 75.2 E1014.6- 27.6 28.0 24.1---
2024-04-21 08:40 am E 6.0 7.0----1014.5- 27.6 28.0 24.3---
2024-04-21 08:30 am E 6.0 8.0----1014.4- 27.5 28.0 24.3---
2024-04-21 08:20 am E 6.0 8.0 1.4 75.2 E1014.3- 27.5 28.0 24.3---
2024-04-21 08:10 am E 6.0 8.0 1.4-5.2 E1014.3- 27.5 28.0 24.3---
2024-04-21 08:00 am E 7.0 8.0----1014.1 +1.7 27.5 28.0 24.1---
2024-04-21 07:50 am E 7.0 8.0 1.4 75.3ENE1014.0- 27.5 28.0 24.2---
2024-04-21 07:40 am E 7.0 9.0----1013.8- 27.5 28.0 24.1---
2024-04-21 07:30 am E 7.0 9.0----1013.6- 27.4 28.0 24.1---
2024-04-21 07:20 am E 6.0 8.0 1.3 105.2 NE1013.5- 27.4 28.0 24.3---
2024-04-21 07:10 am E 6.0 8.0 1.3-5.2 NE1013.3- 27.4 28.0 24.3---
2024-04-21 07:00 am E 7.0 8.0----1013.3 +1.3 27.3 28.0 24.2---
2024-04-21 06:50 am E 7.0 8.0 1.4 105.4 NE1013.1- 27.3 28.0 24.3---
2024-04-21 06:40 am E 6.0 8.0 1.4-5.4 NE1012.9- 27.3 28.0 24.3---
2024-04-21 06:30 am E 7.0 8.0----1012.9- 27.3 28.0 24.3---
2024-04-21 06:20 am E 7.0 8.0 1.4 75.4 E1012.9- 27.2 28.0 24.5---
2024-04-21 06:10 am E 7.0 8.0 1.4-5.4 E1012.8- 27.3 28.0 24.5---
2024-04-21 06:00 am E 7.0 8.0----1012.7 +0.5 27.3 28.0 24.2---
2024-04-21 05:50 am E 7.0 8.0 1.4 75.5 E1012.7- 27.3 28.0 24.4---

Detailed Wave Summary
for 41040 as of (5:40 am ADT)
0840 GMT on 04/22/2024:

These wave data are displayed in rounded times.

     

Click on the graph icon in the table below to see a time series plot of the last five days of that observation.

5-day plot - Significant Wave Height Significant Wave Height (WVHT): 1.4 m
5-day plot - Swell Height Swell Height (SwH): 0.8 m
5-day plot - Swell Period Swell Period (SwP): 7.1 sec
5-day plot - Swell Direction Swell Direction (SwD): E
5-day plot - Wind Wave Height Wind Wave Height (WWH): 1.1 m
5-day plot - Wind Wave Period Wind Wave Period (WWP): 5.6 sec
5-day plot - Wind Wave Direction Wind Wave Direction (WWD):ESE
5-day plot - Wave Steepness Wave Steepness (STEEPNESS):VERY_STEEP
5-day plot - Average Wave Period Average Wave Period (APD): 5.0 sec
Previous observations
TIME
(ADT)
5-day plot - Wave Height
WVHT
m
5-day plot - Swell Height
SwH
m
5-day plot - Swell Period
SwP
sec
5-day plot - Swell Direction
SwD
 
5-day plot - Wind Wave Height
WWH
m
5-day plot - Wind Wave Period
WWP
sec
5-day plot - Wind Wave Direction
WWD
 
5-day plot - Wave Steepness
STEEPNESS
 
5-day plot - Average Wave Period
APD
sec
2024-04-22 05:10 am 1.3 0.7 11.4ESE 1.1 5.0 EVERY_STEEP 4.9
2024-04-22 04:40 am 1.3 0.8 7.1 E 1.0 6.2 E AVERAGE 5.1
2024-04-22 04:10 am 1.3 0.6 9.1ENE 1.1 7.1 E STEEP 5.0
2024-04-22 03:40 am 1.3 0.6 9.1 NE 1.1 7.1 E STEEP 4.9
2024-04-22 03:10 am 1.3 0.6 10.8 E 1.2 7.1 E STEEP 5.0
2024-04-22 02:40 am 1.3 0.8 7.7 E 1.0 6.2 E AVERAGE 5.0
2024-04-22 02:10 am 1.3 0.8 7.7 E 1.0 6.2 E STEEP 5.0
2024-04-22 01:40 am 1.3 0.9 7.7ENE 1.0 6.7 ESE AVERAGE 5.3
2024-04-22 01:10 am 1.4 0.8 10.8ENE 1.1 6.7 E STEEP 5.0
2024-04-22 12:40 am 1.4 0.9 7.1 E 1.0 5.6 ESE STEEP 5.2
2024-04-22 12:10 am 1.3 0.8 7.7 E 0.9 5.6 ESE AVERAGE 5.1
2024-04-21 11:40 pm 1.3 0.8 7.1 E 1.0 5.0 E STEEP 5.2
2024-04-21 11:10 pm 1.3 0.8 7.1 E 1.0 5.0 E AVERAGE 5.1
2024-04-21 10:40 pm 1.3 0.8 9.1ENE 1.0 6.7 E STEEP 5.1
2024-04-21 10:10 pm 1.2 0.9 6.7 E 0.8 5.3 E STEEP 5.1
2024-04-21 09:40 pm 1.2 0.8 7.1 E 0.9 5.3 E AVERAGE 5.0
2024-04-21 09:10 pm 1.2 0.8 7.1 E 0.9 5.9 ESE AVERAGE 5.2
2024-04-21 08:40 pm 1.2 0.8 7.7 E 0.8 6.2 E AVERAGE 5.2
2024-04-21 08:10 pm 1.3 1.0 7.1 E 0.9 5.6 E AVERAGE 5.4
2024-04-21 07:40 pm 1.2 0.9 8.3ENE 0.9 5.6 E AVERAGE 5.3
2024-04-21 07:10 pm 1.1 0.9 8.3 NE 0.8 4.2 E AVERAGE 5.2
2024-04-21 06:40 pm 1.2 0.8 7.1 E 0.8 5.6 ESE AVERAGE 5.2
2024-04-21 06:10 pm 1.2 1.0 10.0ENE 0.8 5.6 E SWELL 5.3
2024-04-21 05:40 pm 1.3 1.1 7.1 E 0.6 4.8 E AVERAGE 5.6
2024-04-21 05:10 pm 1.2 1.0 9.1ENE 0.7 4.8 E SWELL 5.6
2024-04-21 04:40 pm 1.2 1.1 7.1 E 0.6 4.8 ESE AVERAGE 5.5
2024-04-21 04:10 pm 1.2 1.0 7.1ENE 0.6 4.5 E AVERAGE 5.4
2024-04-21 03:40 pm 1.3 1.1 7.1 E 0.7 4.3 E AVERAGE 5.3
2024-04-21 03:10 pm 1.3 1.2 7.7 E 0.6 4.2 E AVERAGE 5.5
2024-04-21 02:40 pm 1.2 1.0 5.9 E 0.6 4.2 E STEEP 5.3
2024-04-21 02:10 pm 1.3 1.1 6.7 E 0.6 4.8 ESE STEEP 5.3
2024-04-21 01:40 pm 1.3 1.1 9.1 NE 0.7 5.0 E SWELL 5.3
2024-04-21 01:10 pm 1.3 1.1 10.0ENE 0.8 5.3 E SWELL 5.4
2024-04-21 12:40 pm 1.3 1.1 7.7ENE 0.8 5.0 ESE AVERAGE 5.4
2024-04-21 12:10 pm 1.3 1.1 7.7 E 0.8 4.8 E AVERAGE 5.2
2024-04-21 11:40 am 1.4 1.2 7.7 E 0.8 5.3 ESE AVERAGE 5.5
2024-04-21 11:10 am 1.4 1.1 6.7 E 0.8 4.8 E STEEP 5.3
2024-04-21 10:40 am 1.4 1.0 10.0 NE 0.9 5.6 E SWELL 5.4
2024-04-21 10:10 am 1.3 1.0 7.7 E 0.9 5.3 ESE AVERAGE 5.3
2024-04-21 09:40 am 1.3 0.9 7.7 E 1.0 5.9 E AVERAGE 5.3
2024-04-21 09:10 am 1.4 1.1 7.7 E 0.9 5.3 E AVERAGE 5.4
2024-04-21 08:40 am 1.3 0.9 7.1 E 0.9 5.9 ESE STEEP 5.2
2024-04-21 08:10 am 1.4 1.0 7.1 E 1.0 5.6 E STEEP 5.2
2024-04-21 07:40 am 1.4 0.9 7.1ENE 1.0 6.2 E STEEP 5.3
2024-04-21 07:10 am 1.3 1.0 10.0 NE 0.9 5.9 ESE SWELL 5.2
2024-04-21 06:40 am 1.4 1.0 10.0 NE 0.9 5.3 E SWELL 5.4
2024-04-21 06:10 am 1.4 1.0 7.1 E 1.0 5.0 E STEEP 5.4

Plot of wave energy versus frequency (and period)